Hourly Data Report for July 17, 2005

TORONTO CITY
ONTARIO

43°40'00.000" N
79°24'00.000" W
112.50 m
6158355
71508
XTO

Download Data

Hourly Data (July 2005)
Hourly Data Report for July 17, 2005
TIME
LST
Temp Definition
°C
Dew Point Definition
°C
Rel Hum Definition
%
Precip. Amount Definition
mm

Wind Dir Definition
10's deg

Wind Spd Definition
km/h
Visibility Definition
km
Stn Press Definition
kPa
Hmdx Definition


Wind Chill Definition


Weather Definition


00:00 24.4 24.0 98   LegendMM LegendMM   100.10 36   LegendNANA
01:00 24.5 24.1 98   LegendMM LegendMM   100.14 36   LegendNANA
02:00 24.2 23.6 96   LegendMM LegendMM   100.10 35   LegendNANA
03:00 24.2 23.7 97   LegendMM LegendMM   100.05 35   LegendNANA
04:00 24.1 23.5 96   LegendMM LegendMM   100.08 35   LegendNANA
05:00 23.3 23.1 99   LegendMM LegendMM   100.10 34   LegendNANA
06:00 23.6 23.4 99   LegendMM LegendMM   100.08 34   LegendNANA
07:00 23.8 23.5 98   LegendMM LegendMM   100.06 35   LegendNANA
08:00 24.6 24.2 98   LegendMM LegendMM   100.08 36   LegendNANA
09:00 24.5 23.8 96   LegendMM LegendMM   100.09 36   LegendNANA
10:00 24.3 23.9 98   LegendMM LegendMM   100.09 35   LegendNANA
11:00 24.9 24.3 96   LegendMM LegendMM   100.08 36   LegendNANA
12:00 24.8 24.2 96   LegendMM LegendMM   100.05 36   LegendNANA
13:00 24.6 24.1 97   LegendMM LegendMM   100.00 36   LegendNANA
14:00 24.4 24.0 98   LegendMM LegendMM   99.95 36   LegendNANA
15:00 27.3 24.1 83   LegendMM LegendMM   99.90 39   LegendNANA
16:00 26.7 23.9 85   LegendMM LegendMM   99.84 38   LegendNANA
17:00 27.6 24.1 81   LegendMM LegendMM   99.81 39   LegendNANA
18:00 26.4 23.3 83   LegendMM LegendMM   99.82 37   LegendNANA
19:00 26.8 23.5 82   LegendMM LegendMM   99.81 38   LegendNANA
20:00 26.1 23.7 87   LegendMM LegendMM   99.82 37   LegendNANA
21:00 25.9 23.9 89   LegendMM LegendMM   99.87 37   LegendNANA
22:00 25.6 24.2 92   LegendMM LegendMM   99.87 37   LegendNANA
23:00 25.2 24.1 94   LegendMM LegendMM   99.87 37   LegendNANA

Notes on Data Quality.

Legend

  • E = Estimated
  • M = Missing
  • NA = Not Available*
  • [empty] = Indicates an unobserved value
Date modified: